Overview Statistics Trail Chart Weather Telemetry Raw packets
 

This is the latest recevied weather packets stored in our database for station/object N0QV. If no packets are shown the sender has not sent any weather packets the latest 10 day(s).

<< 66 67 68 69 70 71 72 >>
Time Temp. Humidity Pressure Rain* Wind** Luminosity Snow
1788207373 32.22° C 51% 1011.8 hPa 0 mm - 587 W/m² -
1788207068 32.22° C 51% 1011.9 hPa 0 mm - 580 W/m² -
1788206764 32.22° C 53% 1011.9 hPa 0 mm - 520 W/m² -
1788206464 31.67° C 53% 1012 hPa 0 mm - 500 W/m² -
1788206160 31.67° C 51% 1012 hPa 0 mm - 514 W/m² -
1788205855 31.67° C 51% 1012.1 hPa 0 mm - 567 W/m² -
1788205550 31.67° C 51% 1011.8 hPa 0 mm - 593 W/m² -
1788205250 31.67° C 52% 1012 hPa 0 mm - 619 W/m² -
1788204945 31.67° C 49% 1011.9 hPa 0 mm - 591 W/m² -
1788204645 31.67° C 54% 1012 hPa 0 mm - 575 W/m² -
1788204340 31.11° C 51% 1011.8 hPa 0 mm - 525 W/m² -
1788204036 31.11° C 53% 1011.8 hPa 0 mm - 514 W/m² -
1788203731 31.11° C 55% 1011.8 hPa 0 mm - 603 W/m² -
1788203427 31.11° C 56% 1011.9 hPa 0 mm - 611 W/m² -
1788203123 30.56° C 57% 1011.9 hPa 0 mm - 478 W/m² -
1788202821 30.56° C 57% 1012 hPa 0 mm - 577 W/m² -
1788202518 30° C 57% 1011.9 hPa 0 mm - 605 W/m² -
1788202223 30° C 58% 1011.9 hPa 0 mm - 390 W/m² -
1788201913 30.56° C 59% 1011.7 hPa 0 mm - 418 W/m² -
1788201608 30° C 60% 1011.9 hPa 0 mm - 131 W/m² -
1788201311 30.56° C 62% 1011.8 hPa 0 mm - 211 W/m² -
1788201007 30° C 63% 1011.9 hPa 0 mm - 282 W/m² -
1788200702 30.56° C 61% 1012 hPa 0 mm - 244 W/m² -
1788200398 30° C 63% 1011.9 hPa 0 mm - 221 W/m² -
1788200092 30° C 64% 1011.8 hPa 0 mm - 352 W/m² -

* Rain latest hour (hover to see other rain measurements)
** Current wind speed in m/s (hover to see current wind gust speed)